This demonstration page uses our WeatherBlox Daily Observations layout. Learn more.

Left ArrowRight Arrow

Hourly Observations for July 16, 2020

Temp ( °F °C ) Dew Point ( °F °C ) Humidity (%) Winds ( mph kmh ) Pressure ( in mb ) Visibility ( mi km ) Precip ( " mm )
12:51 am 00:51 Partly Cloudy 83 28.3 55 12.8 38 38 E 7 11 29.8 1009 10 16.0934 0 0
1:51 am 01:51 Clear 82 27.8 57 13.9 42 42 SE 5 7 29.79 1009 10 16.0934 0 0
2:51 am 02:51 Clear 80 26.7 58 14.4 47 47 SSE 6 9 29.78 1009 10 16.0934 0 0
3:51 am 03:51 Clear 79 26.1 55 12.8 44 44 SE 7 11 29.8 1009 10 16.0934 0 0
4:51 am 04:51 Clear 79 26.1 55 12.8 44 44 SSE 9 15 29.82 1010 10 16.0934 0 0
5:51 am 05:51 Sunny 76 24.4 57 13.9 52 52 SE 8 13 29.84 1011 10 16.0934 0 0
6:51 am 06:51 Sunny 82 27.8 55 12.8 40 40 ESE 8 13 29.85 1011 10 16.0934 0 0
7:51 am 07:51 Sunny 87 30.6 54 12.2 32 32 ESE 10 17 29.86 1011 10 16.0934 0 0
8:51 am 08:51 Sunny 89 31.7 55 12.8 31 31 SSE 7 11 29.85 1011 10 16.0934 0 0
9:51 am 09:51 Sunny 94 34.4 54 12.2 26 26 SE 8 13 29.84 1011 10 16.0934 0 0
10:51 am 10:51 Sunny 96 35.6 53 11.7 23 23 SSE 9 15 29.83 1010 10 16.0934 0 0
11:51 am 11:51 Sunny 98 36.7 53 11.7 22 22 SSW 8 13 29.81 1009 10 16.0934 0 0
12:51 pm 12:51 Sunny 100 37.8 52 11.1 20 20 SSW 6 9 29.78 1008 10 16.0934 0 0
1:51 pm 13:51 Sunny 101 38.3 49 9.4 17 17 undefined N/A 29.74 1007 10 16.0934 0 0
2:51 pm 14:51 Sunny 102 38.9 49 9.4 17 17 VRB 3 6 29.72 1006 10 16.0934 0 0
3:51 pm 15:51 Sunny 103 39.4 48 8.9 16 16 WNW 10 17 29.7 1006 10 16.0934 0 0
4:51 pm 16:51 Sunny 100 37.8 50 10 18 18 W 12 19 29.69 1005 10 16.0934 0 0
5:51 pm 17:51 Sunny 99 37.2 49 9.4 18 18 NW 6 9 29.7 1006 10 16.0934 0 0
6:51 pm 18:51 Sunny 94 34.4 49 9.4 21 21 W 26 43 29.73 1007 10 16.0934 0 0
7:51 pm 19:51 Mostly Clear 91 32.8 51 10.6 26 26 NNW 15 24 29.75 1007 10 16.0934 0 0
8:33 pm 20:33 Cloudy 86 30 56 13.3 36 36 E 29 46 29.82 1010 10 16.0934 0 0
8:51 pm 20:51 Cloudy with Light Rain 74 23.3 66 18.9 76 76 E 21 33 29.93 1014 8 12.87472 0.001 0.001
9:51 pm 21:51 Cloudy 77 25 63 17.2 62 62 ENE 18 30 29.95 1014 10 16.0934 0.001 0.001
10:51 pm 22:51 Cloudy 76 24.4 63 17.2 64 64 NE 16 26 29.94 1014 10 16.0934 0.001 0.001
11:51 pm 23:51 Mostly Cloudy 79 26.1 60 15.6 52 52 Calm 29.92 1013 10 16.0934 0.001 0.001

Powered by AerisWeather